[[{"header":{"parameterUnit":"m.s-1","parameterCategory":1,"la1":30.2991,"la2":30.254,"lo1":-89.0895,"lo2":-89.0444,"dy":0.0017,"dx":0.0017,"nx":28,"ny":28,"refTime":"2024-06-01T09:00:00:Z","depth":0,"parameterNumber":2,"parameterNumberName":"U-component_of_WINDS"},"data":[0,0,0,0,0,0,0,0,0,0,0,0,0,0,0,0,0,0,0,0,0,0,0,0,0,0,0,0,0,0,0,0,0,0,0,0,0,0,0,0,0,0,0,0,0,0,0,0,0,0,0,0,0,0,0,0,0,0,-2.2914,-2.2913,0,-2.2861,-2.2861,-2.286,-2.283,-2.283,-2.283,-2.283,-2.2776,-2.2775,-2.2774,0,0,0,0,0,0,0,0,0,0,0,0,0,-2.2985,-2.2984,-2.2914,-2.2913,-2.2912,-2.2862,-2.2861,-2.286,-2.283,-2.283,-2.283,-2.283,-2.2777,-2.2775,-2.2774,0,0,0,0,0,0,0,0,0,0,0,0,0,-2.2946,-2.2984,-2.2914,-2.2891,-2.2889,-2.2862,-2.2861,-2.286,-2.283,-2.283,-2.283,-2.283,-2.2777,-2.2775,-2.2773,-2.2764,0,0,-2.2767,-2.2766,0,0,0,0,0,0,0,0,-2.2948,-2.2943,-2.2895,-2.2893,-2.289,-2.2852,-2.2866,-2.2828,-2.283,-2.2853,-2.283,-2.283,-2.2802,-2.2798,-2.2788,-2.2762,-2.2759,-2.2767,-2.2766,-2.2765,-2.2764,0,0,0,0,0,0,0,-2.2951,-2.2945,-2.2893,-2.2895,-2.2891,-2.2883,-2.2877,-2.2859,-2.2829,-2.2851,-2.2848,-2.2843,-2.28,-2.279,-2.2787,-2.2759,-2.2767,-2.2765,-2.2764,-2.2763,-2.2719,-2.2719,0,0,0,0,0,0,-2.2957,-2.2948,-2.2895,-2.2891,-2.2919,-2.2882,-2.2876,-2.2865,-2.2829,-2.2823,-2.2843,-2.2841,-2.2794,-2.2789,-2.2785,-2.277,-2.2765,-2.2763,-2.2762,-2.2719,-2.2719,-2.2719,0,0,0,0,0,0,-2.2959,-2.2953,-2.2897,-2.2919,-2.2911,-2.2881,-2.2869,-2.2864,-2.2854,-2.2823,-2.2817,-2.2838,-2.2793,-2.2788,-2.2769,-2.2767,-2.2762,-2.276,-2.2719,-2.2719,-2.2719,-2.2741,0,0,0,0,0,0,-2.2961,-2.2954,-2.2951,-2.2919,-2.291,-2.2882,-2.2869,-2.2863,-2.285,-2.2848,-2.2817,-2.2812,-2.2793,-2.2772,-2.2767,-2.2765,-2.2759,-2.2719,-2.2719,-2.2719,-2.274,-2.2742,-2.2743,0,0,0,0,0,-2.2964,-2.2959,-2.2951,-2.2944,-2.2906,-2.2883,-2.2877,-2.2856,-2.285,-2.2846,-2.2826,-2.2813,-2.2769,-2.277,-2.2764,-2.2761,-2.2719,-2.2719,-2.2719,-2.274,-2.2741,-2.2743,0,0,0,0,0,0,-2.2992,-2.2955,-2.2945,-2.293,-2.291,-2.2878,-2.2872,-2.2859,-2.2839,-2.2838,-2.2812,-2.2805,-2.2788,-2.2773,-2.2776,-2.2749,-2.2742,-2.2741,-2.276,-2.2761,-2.2763,-2.2766,-2.2757,0,0,0,0,0,-2.2996,-2.2981,-2.2949,-2.2939,-2.293,-2.2903,-2.2892,-2.2877,-2.2854,-2.2846,-2.2824,-2.2803,-2.2783,-2.2772,-2.2753,-2.2738,-2.273,-2.2733,-2.2734,-2.2735,-2.2734,-2.2723,-2.2723,-2.2719,-2.2719,-2.2719,0,0,-2.3005,-2.2983,-2.2975,-2.2944,-2.2927,-2.2911,-2.2896,-2.288,-2.2867,-2.2843,-2.2824,-2.2807,-2.2781,-2.2764,-2.2755,-2.2751,-2.2734,-2.2735,-2.2737,-2.2735,-2.2723,-2.2724,-2.2724,-2.2719,-2.2719,-2.2719,0,0,-2.3013,-2.2996,-2.2985,-2.2967,-2.294,-2.2922,-2.2919,-2.2888,-2.2876,-2.2856,-2.2837,-2.2821,-2.279,-2.2771,-2.2758,-2.2757,-2.2743,-2.2751,-2.2758,-2.2748,-2.2748,-2.2748,-2.2746,-2.2746,-2.275,-2.275,-2.2751,0,-2.3028,-2.3003,-2.298,-2.2965,-2.2951,-2.2928,-2.2915,-2.2899,-2.2868,-2.2858,-2.2854,-2.2812,-2.2793,-2.277,-2.2769,-2.2759,-2.2754,-2.2754,-2.275,-2.275,-2.2749,-2.2747,-2.2747,-2.2752,-2.2751,-2.2751,-2.2751,0,-2.3022,-2.3005,-2.2999,-2.2968,-2.2954,-2.294,-2.2913,-2.2901,-2.2887,-2.2869,-2.2847,-2.2824,-2.2798,-2.2792,-2.2778,-2.2766,-2.2764,-2.2755,-2.2747,-2.2751,-2.2749,-2.2748,-2.2753,-2.2753,-2.2752,-2.2752,0,0,-2.3047,-2.3002,-2.3,-2.2985,-2.2953,-2.2939,-2.2923,-2.2898,-2.2887,-2.2866,-2.2851,-2.2824,-2.2814,-2.2799,-2.2783,-2.2774,-2.2771,-2.2765,-2.2764,-2.2766,-2.2754,-2.276,-2.276,-2.2762,-2.2762,-2.2762,-2.2756,0,-2.3049,-2.302,-2.2998,-2.2977,-2.296,-2.2936,-2.2922,-2.29,-2.2883,-2.2865,-2.2845,-2.2825,-2.2816,-2.2806,-2.2796,-2.2774,-2.2768,-2.2774,-2.2747,-2.2746,-2.2753,-2.2759,-2.2766,-2.2761,-2.2755,-2.2755,-2.2755,0,-2.3048,-2.3026,-2.3004,-2.2971,-2.2963,-2.2951,-2.2925,-2.2909,-2.2883,-2.287,-2.2852,-2.2835,-2.2816,-2.281,-2.2782,-2.2786,-2.2773,-2.2761,-2.276,-2.2756,-2.275,-2.2754,-2.276,-2.2759,-2.2753,-2.2753,-2.2753,0,-2.3066,-2.3032,-2.3013,-2.3001,-2.2963,-2.2955,-2.2939,-2.2912,-2.2898,-2.2875,-2.2865,-2.2841,-2.2827,-2.2808,-2.2783,-2.2782,-2.2758,-2.275,-2.2745,-2.2746,-2.2741,-2.2742,-2.2744,-2.2735,-2.2735,-2.2735,-2.2735,0,-2.307,-2.3057,-2.302,-2.3009,-2.2993,-2.2967,-2.2951,-2.2932,-2.2909,-2.2892,-2.2871,-2.2856,-2.2826,-2.2806,-2.2787,-2.2766,-2.276,-2.2749,-2.2744,-2.275,-2.2751,-2.2741,-2.274,-2.2735,-2.2735,-2.2735,-2.2735,0,-2.3088,-2.3063,-2.3041,-2.3007,-2.2998,-2.2987,-2.2957,-2.2944,-2.2924,-2.2904,-2.2897,-2.2866,-2.2842,-2.2816,-2.2784,-2.2771,-2.275,-2.2744,-2.2759,-2.2756,-2.2752,-2.2753,-2.2747,-2.2745,-2.2738,-2.2739,-2.2739,0,-2.3092,-2.3081,-2.3045,-2.3032,-2.3017,-2.2997,-2.2982,-2.2955,-2.294,-2.2908,-2.2899,-2.2873,-2.2851,-2.2814,-2.2788,-2.2762,-2.2754,-2.2754,-2.275,-2.2756,-2.2752,-2.2753,-2.2751,-2.2755,-2.2755,-2.2755,-2.2756,0,-2.3101,-2.3089,-2.3068,-2.3042,-2.3025,-2.3003,-2.2981,-2.2972,-2.2941,-2.2924,-2.2899,-2.2882,-2.2848,-2.2822,-2.2793,-2.2775,-2.276,-2.2757,-2.2754,-2.276,-2.2769,-2.2763,-2.2761,-2.2757,-2.2757,-2.2757,-2.2757,-2.2757,-2.3111,-2.3099,-2.3071,-2.3048,-2.3029,-2.3008,-2.2993,-2.2972,-2.295,-2.2921,-2.2906,-2.2881,-2.2853,-2.2812,-2.2794,-2.2773,-2.2768,-2.2765,-2.2764,-2.2763,-2.2764,-2.2773,-2.2768,-2.2768,-2.2768,-2.2768,-2.2768,0,-2.3117,-2.3098,-2.3077,-2.3046,-2.3027,-2.3014,-2.2988,-2.2973,-2.2952,-2.2927,-2.2905,-2.2876,-2.285,-2.2821,-2.2794,-2.2782,-2.2774,-2.2775,-2.2776,-2.2771,-2.2771,-2.2775,-2.2782,-2.2782,-2.2782,-2.2782,-2.2782,-2.2782,-2.3118,-2.3097,-2.3081,-2.305,-2.303,-2.3005,-2.2991,-2.2971,-2.2951,-2.2919,-2.2898,-2.2879,-2.2852,-2.2822,-2.2797,-2.2789,-2.278,-2.2783,-2.2773,-2.2773,-2.2772,-2.2771,-2.2775,-2.2782,-2.2782,-2.2775,-2.2775,-2.2775]},{"header":{"parameterUnit":"m.s-1","parameterCategory":1,"la1":30.2991,"la2":30.254,"lo1":-89.0895,"lo2":-89.0444,"dy":0.0017,"dx":0.0017,"nx":28,"ny":28,"refTime":"2024-06-01T09:00:00:Z","depth":0,"parameterNumber":3,"parameterNumberName":"V-component_of_WINDS"},"data":[0,0,0,0,0,0,0,0,0,0,0,0,0,0,0,0,0,0,0,0,0,0,0,0,0,0,0,0,0,0,0,0,0,0,0,0,0,0,0,0,0,0,0,0,0,0,0,0,0,0,0,0,0,0,0,0,0,0,2.8721,2.8721,0,2.8764,2.8765,2.8765,2.8838,2.884,2.8841,2.8842,2.8885,2.8885,2.8885,0,0,0,0,0,0,0,0,0,0,0,0,0,2.87,2.87,2.8721,2.8721,2.8722,2.8764,2.8765,2.8765,2.8838,2.884,2.8841,2.8843,2.8885,2.8885,2.8885,0,0,0,0,0,0,0,0,0,0,0,0,0,2.8723,2.87,2.8721,2.8763,2.8768,2.8764,2.8765,2.8766,2.8838,2.884,2.8842,2.8844,2.8885,2.8885,2.8885,2.8843,0,0,2.8885,2.8884,0,0,0,0,0,0,0,0,2.8722,2.8724,2.8757,2.876,2.8765,2.8798,2.8774,2.8791,2.8837,2.8811,2.8842,2.8845,2.8855,2.8857,2.8861,2.8845,2.8847,2.8885,2.8884,2.8884,2.8884,0,0,0,0,0,0,0,2.872,2.8722,2.8738,2.8757,2.8762,2.878,2.8786,2.8777,2.8821,2.8813,2.8819,2.8823,2.8857,2.8861,2.8862,2.8848,2.8885,2.8884,2.8884,2.8884,2.8801,2.8799,0,0,0,0,0,0,2.8712,2.872,2.8737,2.8739,2.8748,2.8779,2.8785,2.8785,2.8821,2.8828,2.8821,2.8826,2.886,2.8862,2.8864,2.8818,2.8884,2.8884,2.8884,2.8803,2.8801,2.8798,0,0,0,0,0,0,2.8712,2.8713,2.8735,2.8731,2.8736,2.8777,2.8777,2.8785,2.8789,2.8827,2.8835,2.8817,2.8862,2.8864,2.8848,2.882,2.8884,2.8884,2.8806,2.8802,2.8799,2.8724,0,0,0,0,0,0,2.8711,2.8712,2.8697,2.8731,2.8735,2.8718,2.8775,2.8784,2.8788,2.8795,2.8825,2.8832,2.8863,2.8848,2.8848,2.8821,2.8884,2.8808,2.8804,2.88,2.8729,2.8719,2.871,0,0,0,0,0,2.871,2.8673,2.8696,2.8697,2.8717,2.8716,2.8719,2.8757,2.8786,2.877,2.8795,2.8831,2.8823,2.8846,2.8846,2.8819,2.881,2.8805,2.8801,2.8734,2.8721,2.871,0,0,0,0,0,0,2.8635,2.8679,2.8704,2.8677,2.8693,2.8729,2.871,2.8742,2.8749,2.8755,2.8801,2.8807,2.8785,2.8801,2.8825,2.8781,2.8822,2.8818,2.8771,2.876,2.875,2.8746,2.8884,0,0,0,0,0,2.8615,2.8611,2.865,2.8623,2.8629,2.8668,2.8669,2.8697,2.8715,2.8721,2.8745,2.876,2.8762,2.8762,2.8765,2.8732,2.874,2.8714,2.8704,2.8696,2.8691,2.8676,2.8665,2.8783,2.8783,2.8783,0,0,2.8574,2.8598,2.8593,2.8608,2.8623,2.8618,2.8673,2.8665,2.8662,2.872,2.8707,2.8724,2.8745,2.872,2.8711,2.8733,2.8661,2.869,2.8683,2.8683,2.867,2.8659,2.8649,2.878,2.878,2.8781,0,0,2.8498,2.8515,2.8495,2.8509,2.8532,2.8558,2.8553,2.8585,2.8599,2.8586,2.863,2.8627,2.8628,2.8641,2.8648,2.8577,2.861,2.8577,2.8526,2.851,2.8501,2.8493,2.8468,2.8459,2.8572,2.8572,2.8572,0,2.8444,2.8438,2.848,2.847,2.8476,2.8529,2.8509,2.8521,2.8543,2.8545,2.857,2.8573,2.859,2.857,2.8553,2.8557,2.8553,2.8574,2.8499,2.8492,2.8485,2.8462,2.8452,2.8568,2.8568,2.8569,2.8569,0,2.8372,2.8367,2.8348,2.8369,2.8372,2.8357,2.8396,2.8395,2.8423,2.8447,2.8434,2.8457,2.8466,2.8463,2.849,2.8447,2.846,2.8491,2.8534,2.8469,2.8448,2.8439,2.8562,2.8563,2.8565,2.8566,0,0,2.8248,2.8293,2.8285,2.8296,2.8325,2.8322,2.8309,2.8319,2.8317,2.8331,2.8321,2.8322,2.8351,2.8359,2.8388,2.8374,2.8317,2.8407,2.8408,2.839,2.8272,2.8248,2.8237,2.834,2.8338,2.8337,2.827,0,2.8178,2.8159,2.8196,2.8168,2.8165,2.8216,2.8205,2.8222,2.8244,2.8244,2.8269,2.8268,2.8307,2.8312,2.8301,2.8326,2.8294,2.8332,2.8331,2.8331,2.8324,2.8226,2.82,2.8136,2.8262,2.8261,2.826,0,2.8092,2.8103,2.8074,2.8106,2.8106,2.8095,2.8107,2.8107,2.8127,2.8145,2.8153,2.8188,2.8178,2.8219,2.8206,2.8231,2.8234,2.8246,2.8245,2.8246,2.8291,2.8224,2.8116,2.8107,2.8247,2.8248,2.8249,0,2.8005,2.8012,2.7996,2.8003,2.804,2.8031,2.8046,2.8068,2.8072,2.8083,2.8086,2.8095,2.81,2.8106,2.8142,2.8169,2.8125,2.817,2.8139,2.8138,2.8127,2.8127,2.8018,2.8129,2.8129,2.8129,2.8129,0,2.7922,2.7903,2.7957,2.7947,2.7927,2.7971,2.795,2.797,2.799,2.7985,2.803,2.8024,2.8072,2.8072,2.81,2.8085,2.8087,2.8101,2.8109,2.8097,2.8095,2.8099,2.8104,2.8127,2.8127,2.8128,2.8128,0,2.7822,2.7857,2.7843,2.7879,2.7888,2.7871,2.7902,2.7895,2.792,2.7914,2.7915,2.7954,2.7957,2.7993,2.8003,2.8022,2.7996,2.8012,2.7989,2.7994,2.7962,2.7965,2.7851,2.7839,2.7957,2.7956,2.7955,0,2.7766,2.7753,2.7787,2.7788,2.78,2.78,2.7804,2.7847,2.7849,2.7872,2.7861,2.7867,2.7874,2.7875,2.7905,2.7913,2.793,2.789,2.7932,2.792,2.793,2.793,2.7929,2.7881,2.7879,2.7878,2.7877,0,2.7664,2.7683,2.7687,2.7698,2.7702,2.7712,2.7725,2.7723,2.777,2.777,2.7773,2.7779,2.7789,2.7795,2.7808,2.7824,2.7858,2.7864,2.7857,2.7845,2.7832,2.7839,2.7965,2.7866,2.7867,2.7868,2.7869,2.7869,2.7585,2.7576,2.7599,2.7602,2.7617,2.7628,2.7623,2.7648,2.7651,2.7663,2.7689,2.7688,2.7709,2.7731,2.7744,2.7744,2.7765,2.7755,2.7753,2.775,2.7743,2.7832,2.7747,2.7747,2.7747,2.7748,2.7748,0,2.7486,2.7503,2.7506,2.7524,2.7526,2.7559,2.7575,2.7576,2.7574,2.7592,2.7598,2.7601,2.7607,2.7638,2.7647,2.7641,2.7657,2.7642,2.7643,2.7646,2.7724,2.7729,2.7629,2.7629,2.7629,2.7629,2.7629,2.7629,2.7435,2.7421,2.7442,2.7435,2.7453,2.7453,2.746,2.747,2.7485,2.7487,2.7492,2.7512,2.7535,2.7546,2.7553,2.7562,2.7563,2.7543,2.7557,2.7629,2.7641,2.7652,2.7656,2.7543,2.7543,2.7479,2.7479,2.7478]}]]